Weather History for Adak, AK

Change the Weather History Date:

Thursday, January 24, 2013

  Actual Average Record
Temperature  
Mean Temperature 24 °F -  
Max Temperature 37 °F 37 °F 47 °F (1991)
Min Temperature 12 °F 29 °F 9 °F (1990)
Degree Days  
Heating Degree Days 40    
Moisture  
Dew Point 24 °F    
Average Humidity 84    
Maximum Humidity 100    
Minimum Humidity 70    
Precipitation  
Precipitation 0.20 in - - ()
Sea Level Pressure  
Sea Level Pressure 29.70 in    
Wind  
Wind Speed 7 mph (SSE)    
Max Wind Speed 24 mph    
Max Gust Speed 36 mph    
Visibility 9 miles    
Events      
Averages and records for this station are not official NWS values.
T = Trace of Precipitation, MM = Missing Value Source: NWS Daily Summary

Daily Weather History Graph

Daily Weather History Graph

Search for Another Location

Airport:

Trip Planner

Search our weather history database for the weather conditions in past years. The results will help you decide how hot, cold, wet, or windy it might be!

Date:

Astronomy

Jan. 24, 2013 Rise Set
Actual Time 9:36 AM HAST 6:21 PM HAST
Civil Twilight 8:59 AM HAST 6:59 PM HAST
Nautical Twilight 8:17 AM HAST 7:40 PM HAST
Astronomical Twilight 7:38 AM HAST 8:20 PM HAST
Moon 4:33 PM HAST (1/24) 7:49 AM HAST (1/24)
Length of Visible Light 10h 00m
Length of Day
8h 44m
Waxing Gibbous, 95% of the Moon is Illuminated
Jan 24
Waxing Gibbous
Jan 26
Full
Feb 3
Last Quarter
Feb 9
New
Feb 17
First Quarter

Hourly Weather History & Observations

Time (HAST) Temp. Windchill Dew Point Humidity Pressure Visibility Wind Dir Wind Speed Gust Speed Precip Events Conditions
12:16 AM 24.8 °F - 17.6 °F 74% 29.83 in 10.0 mi Calm Calm - N/A   Partly Cloudy
12:36 AM 23.0 °F - 17.6 °F 80% 29.83 in 10.0 mi Calm Calm - N/A   Clear
12:56 AM 24.8 °F - 17.6 °F 74% 29.83 in 10.0 mi Calm Calm - N/A   Clear
1:16 AM 21.2 °F 10.9 °F 14.0 °F 74% 29.83 in 10.0 mi WSW 9.2 mph - N/A   Clear
1:36 AM 23.0 °F - 17.6 °F 80% 29.83 in 10.0 mi Calm Calm - N/A   Clear
2:16 AM 21.2 °F - 14.0 °F 74% 29.84 in 10.0 mi Calm Calm - N/A   Clear
2:36 AM 19.4 °F - 15.8 °F 86% 29.84 in 10.0 mi Calm Calm - N/A   Clear
2:56 AM 19.4 °F - 15.8 °F 86% 29.83 in 10.0 mi Calm Calm - N/A   Clear
3:16 AM 17.6 °F 12.3 °F 12.2 °F 79% 29.83 in 10.0 mi WSW 3.5 mph - N/A   Clear
3:36 AM 15.8 °F - 12.2 °F 86% 29.83 in 10.0 mi Calm Calm - N/A   Clear
3:56 AM 15.8 °F 10.2 °F 12.2 °F 86% 29.83 in 10.0 mi WSW 3.5 mph - N/A   Clear
4:16 AM 17.6 °F - 12.2 °F 79% 29.83 in 10.0 mi Calm Calm - N/A   Clear
4:36 AM 15.8 °F - 12.2 °F 86% 29.82 in 10.0 mi Calm Calm - N/A   Clear
4:56 AM 15.8 °F - 12.2 °F 86% 29.81 in 10.0 mi Calm Calm - N/A   Clear
5:16 AM 15.8 °F - 10.4 °F 79% 29.81 in 10.0 mi Calm Calm - N/A   Clear
5:36 AM 15.8 °F 6.1 °F 12.2 °F 86% 29.82 in 10.0 mi SW 6.9 mph - N/A   Clear
5:56 AM 15.8 °F - 12.2 °F 86% 29.82 in 10.0 mi Calm Calm - N/A   Clear
6:16 AM 19.4 °F - 15.8 °F 86% 29.81 in 10.0 mi Calm Calm - N/A   Clear
6:36 AM 15.8 °F - 14.0 °F 93% 29.81 in 10.0 mi Calm Calm - N/A   Clear
6:56 AM 17.6 °F 10.7 °F 15.8 °F 93% 29.80 in 10.0 mi NNW 4.6 mph - N/A   Clear
7:16 AM 15.8 °F 10.2 °F 12.2 °F 86% 29.79 in 10.0 mi NNW 3.5 mph - N/A   Clear
7:36 AM 14.0 °F - 10.4 °F 86% 29.80 in 10.0 mi Calm Calm - N/A   Clear
7:56 AM 14.0 °F - 14.0 °F 100% 29.79 in 10.0 mi Calm Calm - N/A   Clear
8:16 AM 17.6 °F - 15.8 °F 93% 29.78 in 10.0 mi Calm Calm - N/A   Clear
8:36 AM 15.8 °F - 14.0 °F 93% 29.77 in 10.0 mi Calm Calm - N/A   Clear
8:56 AM 17.6 °F 12.3 °F 15.8 °F 93% 29.78 in 10.0 mi WSW 3.5 mph - N/A   Clear
9:16 AM 28.4 °F 18.0 °F 28.4 °F 100% 29.77 in 10.0 mi SE 12.7 mph 16.1 mph N/A   Clear
9:36 AM 30.2 °F 20.8 °F 23.0 °F 75% 29.77 in 10.0 mi SE 11.5 mph - N/A   Clear
9:56 AM 32.0 °F 24.2 °F 24.8 °F 75% 29.77 in 10.0 mi SE 9.2 mph - N/A   Clear
10:16 AM 32.0 °F 23.6 °F 24.8 °F 75% 29.76 in 10.0 mi ESE 10.4 mph - N/A   Clear
10:36 AM 33.8 °F 25.8 °F 24.8 °F 70% 29.75 in 10.0 mi ESE 10.4 mph - N/A   Clear
10:56 AM 33.8 °F 24.8 °F 24.8 °F 70% 29.74 in 10.0 mi ESE 12.7 mph - N/A   Clear
11:16 AM 33.8 °F 23.9 °F 26.6 °F 75% 29.74 in 10.0 mi ESE 15.0 mph 20.7 mph N/A   Mostly Cloudy
11:36 AM 33.8 °F 22.8 °F 26.6 °F 75% 29.73 in 10.0 mi SE 18.4 mph 23.0 mph N/A   Overcast
11:56 AM 33.8 °F 22.8 °F 26.6 °F 75% 29.72 in 10.0 mi SE 18.4 mph - N/A   Overcast
12:16 PM 35.6 °F 27.1 °F 26.6 °F 70% 29.72 in 10.0 mi ESE 12.7 mph - N/A   Mostly Cloudy
12:36 PM 35.6 °F 27.5 °F 26.6 °F 70% 29.70 in 10.0 mi ESE 11.5 mph - N/A   Mostly Cloudy
12:56 PM 35.6 °F 27.1 °F 26.6 °F 70% 29.69 in 10.0 mi ESE 12.7 mph - N/A   Overcast
1:16 PM 35.6 °F 25.5 °F 26.6 °F 70% 29.67 in 10.0 mi East 17.3 mph 21.9 mph N/A   Overcast
1:36 PM 35.6 °F 25.2 °F 28.4 °F 75% 29.66 in 10.0 mi ESE 18.4 mph - N/A   Overcast
1:56 PM 35.6 °F 24.0 °F 28.4 °F 75% 29.66 in 10.0 mi SE 23.0 mph 28.8 mph N/A   Overcast
2:16 PM 35.6 °F 25.5 °F 26.6 °F 70% 29.65 in 10.0 mi SE 17.3 mph 27.6 mph N/A   Overcast
2:36 PM 35.6 °F 24.2 °F 28.4 °F 75% 29.64 in 5.0 mi SE 21.9 mph 34.5 mph N/A   Overcast
2:56 PM 35.6 °F 26.2 °F 30.2 °F 81% 29.62 in 10.0 mi SE 15.0 mph 28.8 mph N/A   Overcast
3:16 PM 35.6 °F 23.7 °F 30.2 °F 81% 29.62 in 2.0 mi SE 24.2 mph 35.7 mph N/A   Overcast
3:36 PM 33.8 °F 22.8 °F 30.2 °F 87% 29.61 in 1.0 mi SE 18.4 mph - N/A   Overcast
3:56 PM 33.8 °F 23.9 °F 32.0 °F 93% 29.60 in 1.5 mi ESE 15.0 mph - N/A   Overcast
4:16 PM 33.8 °F 24.8 °F 32.0 °F 93% 29.59 in 1.5 mi ESE 12.7 mph - 0.02 in   Overcast
4:36 PM 33.8 °F 24.8 °F 32.0 °F 93% 29.58 in 1.8 mi ESE 12.7 mph - 0.05 in   Overcast
4:56 PM 33.8 °F 23.9 °F 33.8 °F 100% 29.57 in 3.0 mi ESE 15.0 mph 20.7 mph 0.07 in   Overcast
5:16 PM 35.6 °F 24.8 °F 32.0 °F 87% 29.57 in 4.0 mi SE 19.6 mph 26.5 mph 0.03 in   Overcast
5:36 PM 35.6 °F 25.9 °F 33.8 °F 93% 29.56 in 5.0 mi SE 16.1 mph 21.9 mph 0.05 in   Overcast
5:56 PM 35.6 °F 26.2 °F 33.8 °F 93% 29.56 in 5.0 mi SSE 15.0 mph 24.2 mph 0.07 in   Overcast
6:16 PM 35.6 °F 25.5 °F 33.8 °F 93% 29.56 in 5.0 mi SSE 17.3 mph 25.3 mph 0.01 in   Overcast
6:36 PM 35.6 °F 24.2 °F 33.8 °F 93% 29.55 in 3.0 mi SSE 21.9 mph 27.6 mph 0.02 in   Overcast
6:56 PM 37.4 °F 26.4 °F 33.8 °F 87% 29.54 in 4.0 mi SSE 23.0 mph 32.2 mph 0.03 in   Overcast
7:16 PM 37.4 °F 27.5 °F 35.6 °F 93% 29.54 in 5.0 mi SSE 18.4 mph - 0.01 in   Mostly Cloudy
7:36 PM 37.4 °F 28.2 °F 35.6 °F 93% 29.54 in 8.0 mi South 16.1 mph - 0.01 in   Overcast
7:56 PM 37.4 °F 30.3 °F 35.6 °F 93% 29.54 in 10.0 mi SSW 10.4 mph - 0.01 in   Overcast
8:16 PM 35.6 °F 28.0 °F 33.8 °F 93% 29.54 in 10.0 mi SSW 10.4 mph - N/A   Mostly Cloudy
8:36 PM 35.6 °F 28.0 °F 30.2 °F 81% 29.55 in 10.0 mi SSW 10.4 mph - N/A   Scattered Clouds
8:56 PM 35.6 °F 28.6 °F 30.2 °F 81% 29.55 in 10.0 mi SSW 9.2 mph - N/A   Partly Cloudy
9:16 PM 35.6 °F 26.2 °F 32.0 °F 87% 29.56 in 10.0 mi SW 15.0 mph - N/A   Scattered Clouds
9:36 PM 35.6 °F 28.0 °F 32.0 °F 87% 29.56 in 10.0 mi SSW 10.4 mph - N/A   Scattered Clouds
9:56 PM 35.6 °F 27.1 °F 32.0 °F 87% 29.57 in 10.0 mi SSW 12.7 mph - N/A   Partly Cloudy
10:16 PM 35.6 °F 27.1 °F 32.0 °F 87% 29.58 in 10.0 mi South 12.7 mph - N/A   Clear
10:36 PM 35.6 °F 26.6 °F 30.2 °F 81% 29.59 in 10.0 mi SSW 13.8 mph - N/A   Scattered Clouds
10:56 PM 35.6 °F 27.1 °F 30.2 °F 81% 29.59 in 10.0 mi SSW 12.7 mph - N/A   Mostly Cloudy
11:16 PM 37.4 °F 29.3 °F 30.2 °F 75% 29.60 in 10.0 mi SSW 12.7 mph 21.9 mph N/A   Overcast
11:36 PM 37.4 °F 28.2 °F 28.4 °F 70% 29.60 in 10.0 mi SSW 16.1 mph - N/A   Mostly Cloudy
11:56 PM 35.6 °F 26.2 °F 28.4 °F 75% 29.61 in 10.0 mi SW 15.0 mph - N/A   Scattered Clouds